• en France
  • Liste des pays
  • À 7 jours
  • Température de l'eau
  • Carte satellitaire
  • Carte météo
  • Widgets météo
  • user-avatar
    Se connecter

    Météo par heure à Edynburg

    Ce jour, 21 Novembre, Mardi

    Heure Température Précipitation Vent Pression Humidité
    00:00 +9°C° 0 mm 1 m/s 752 mmHg 97%
    01:00 +9°C° 0,1 mm 1 m/s 752 mmHg 97%
    02:00 +9°C° 0,1 mm 1 m/s 752 mmHg 97%
    03:00 +9°C° 0,1 mm 1 m/s 751 mmHg 97%
    04:00 +9°C° 0,5 mm 1 m/s 751 mmHg 97%
    05:00 +9°C° 0,5 mm 1 m/s 751 mmHg 97%
    06:00 +9°C° 0,5 mm 1 m/s 750 mmHg 97%
    07:00 +9°C° 0,7 mm 1 m/s 750 mmHg 97%
    08:00 +10°C° 0,7 mm 1 m/s 750 mmHg 97%
    09:00 +10°C° 0,7 mm 1 m/s 749 mmHg 98%
    10:00 +9°C° 0,3 mm 2 m/s 749 mmHg 97%
    11:00 +10°C° 0,3 mm 2 m/s 749 mmHg 97%
    12:00 +10°C° 0,3 mm 2 m/s 748 mmHg 96%
    13:00 +10°C° 0,6 mm 3 m/s 747 mmHg 96%
    14:00 +10°C° 0,6 mm 3 m/s 746 mmHg 96%
    15:00 +11°C° 0,6 mm 4 m/s 745 mmHg 96%
    16:00 +10°C° 0,5 mm 5 m/s 744 mmHg 95%
    17:00 +10°C° 0,5 mm 6 m/s 743 mmHg 94%
    18:00 +11°C° 0,5 mm 7 m/s 742 mmHg 93%
    19:00 +11°C° 0,3 mm 7 m/s 742 mmHg 92%
    20:00 +11°C° 0,3 mm 7 m/s 742 mmHg 92%
    21:00 +11°C° 0,3 mm 8 m/s 741 mmHg 91%
    22:00 +11°C° 0,2 mm 7 m/s 741 mmHg 91%
    23:00 +10°C° 0,2 mm 7 m/s 741 mmHg 90%

    Demain, 22 Novembre, Mercredi

    Heure Température Précipitation Vent Pression Humidité
    00:00 +10°C° 0,2 mm 7 m/s 741 mmHg 90%
    01:00 +10°C° 0 mm 7 m/s 741 mmHg 91%
    02:00 +9°C° 0 mm 6 m/s 741 mmHg 91%
    03:00 +9°C° 0 mm 6 m/s 741 mmHg 91%
    04:00 +9°C° 0 mm 5 m/s 741 mmHg 92%
    05:00 +9°C° 0 mm 5 m/s 741 mmHg 92%
    06:00 +8°C° 0 mm 4 m/s 740 mmHg 93%
    07:00 +8°C° 0,3 mm 4 m/s 740 mmHg 93%
    08:00 +9°C° 0,3 mm 3 m/s 739 mmHg 94%
    09:00 +9°C° 0,3 mm 3 m/s 739 mmHg 94%
    10:00 +9°C° 2,7 mm 3 m/s 738 mmHg 95%
    11:00 +9°C° 2,7 mm 3 m/s 736 mmHg 96%
    12:00 +8°C° 2,7 mm 3 m/s 735 mmHg 96%
    13:00 +8°C° 4 mm 4 m/s 734 mmHg 96%
    14:00 +8°C° 4 mm 4 m/s 733 mmHg 95%
    15:00 +8°C° 4 mm 5 m/s 732 mmHg 94%
    16:00 +8°C° 1,7 mm 4 m/s 731 mmHg 94%
    17:00 +8°C° 1,7 mm 4 m/s 731 mmHg 94%
    18:00 +8°C° 1,7 mm 4 m/s 730 mmHg 94%
    19:00 +9°C° 0,9 mm 3 m/s 730 mmHg 94%
    20:00 +8°C° 0,9 mm 3 m/s 730 mmHg 94%
    21:00 +8°C° 0,9 mm 2 m/s 730 mmHg 94%
    22:00 +8°C° 0,9 mm 2 m/s 730 mmHg 94%
    23:00 +7°C° 0,9 mm 2 m/s 730 mmHg 94%

    Après-demain, 23 Novembre, Jeudi

    Heure Température Précipitation Vent Pression Humidité
    00:00 +8°C° 0,9 mm 1 m/s 730 mmHg 95%
    01:00 +8°C° 0,7 mm 1 m/s 730 mmHg 95%
    02:00 +8°C° 0,7 mm 1 m/s 730 mmHg 96%
    03:00 +8°C° 0,7 mm 1 m/s 730 mmHg 96%
    04:00 +7°C° 0,5 mm 3 m/s 731 mmHg 95%
    05:00 +6°C° 0,5 mm 4 m/s 731 mmHg 94%
    06:00 +6°C° 0,5 mm 5 m/s 732 mmHg 93%
    07:00 +5°C° 0,2 mm 6 m/s 733 mmHg 88%
    08:00 +4°C° 0,2 mm 6 m/s 734 mmHg 83%
    09:00 +4°C° 0,2 mm 6 m/s 735 mmHg 77%
    10:00 +4°C° 0 mm 7 m/s 736 mmHg 74%
    11:00 +4°C° 0 mm 8 m/s 737 mmHg 71%
    12:00 +3°C° 0 mm 9 m/s 738 mmHg 68%
    13:00 +4°C° 0,1 mm 8 m/s 738 mmHg 69%
    14:00 +4°C° 0,1 mm 8 m/s 738 mmHg 70%
    15:00 +4°C° 0,1 mm 8 m/s 738 mmHg 71%
    16:00 +4°C° 0,1 mm 8 m/s 737 mmHg 72%
    17:00 +3°C° 0,1 mm 9 m/s 736 mmHg 72%
    18:00 +3°C° 0,1 mm 9 m/s 736 mmHg 73%
    19:00 +3°C° 0,2 mm 9 m/s 735 mmHg 73%
    20:00 +3°C° 0,2 mm 9 m/s 735 mmHg 74%
    21:00 +3°C° 0,2 mm 10 m/s 734 mmHg 74%
    22:00 +5°C° 0,2 mm 10 m/s 735 mmHg 75%
    23:00 +5°C° 0,2 mm 10 m/s 736 mmHg 76%

    24 Novembre, Vendredi

    Heure Température Précipitation Vent Pression Humidité
    00:00 +5°C° 0,2 mm 9 m/s 736 mmHg 77%
    01:00 +5°C° 0,1 mm 9 m/s 737 mmHg 77%
    02:00 +5°C° 0,1 mm 9 m/s 739 mmHg 77%
    03:00 +5°C° 0,1 mm 9 m/s 740 mmHg 78%
    04:00 +4°C° 0 mm 8 m/s 741 mmHg 78%
    05:00 +3°C° 0 mm 7 m/s 743 mmHg 78%
    06:00 +3°C° 0 mm 6 m/s 744 mmHg 79%
    07:00 +2°C° 0 mm 5 m/s 746 mmHg 79%
    08:00 +3°C° 0 mm 4 m/s 747 mmHg 80%
    09:00 +3°C° 0 mm 4 m/s 748 mmHg 81%
    10:00 +3°C° 0 mm 4 m/s 749 mmHg 77%
    11:00 +4°C° 0 mm 4 m/s 750 mmHg 74%
    12:00 +5°C° 0 mm 4 m/s 750 mmHg 70%
    13:00 +4°C° 0 mm 3 m/s 751 mmHg 72%
    14:00 +4°C° 0 mm 3 m/s 751 mmHg 74%
    15:00 +5°C° 0 mm 2 m/s 751 mmHg 76%
    16:00 +4°C° 0 mm 2 m/s 752 mmHg 77%
    17:00 +3°C° 0 mm 2 m/s 752 mmHg 79%
    18:00 +3°C° 0 mm 1 m/s 752 mmHg 80%
    19:00 +3°C° 0 mm 1 m/s 753 mmHg 80%
    20:00 +3°C° 0 mm 1 m/s 753 mmHg 80%
    21:00 +3°C° 0 mm 1 m/s 753 mmHg 80%
    22:00 +3°C° 0 mm 1 m/s 753 mmHg 80%
    23:00 +3°C° 0 mm 1 m/s 753 mmHg 80%

    25 Novembre, Samedi

    Heure Température Précipitation Vent Pression Humidité
    00:00 +2°C° 0 mm 0 m/s 753 mmHg 80%
    01:00 +2°C° 0 mm 0 m/s 753 mmHg 80%
    02:00 +2°C° 0 mm 0 m/s 752 mmHg 80%
    03:00 +2°C° 0 mm 0 m/s 752 mmHg 80%
    04:00 +3°C° 0 mm 1 m/s 752 mmHg 81%
    05:00 +3°C° 0 mm 1 m/s 752 mmHg 81%
    06:00 +2°C° 0 mm 2 m/s 751 mmHg 82%
    07:00 +2°C° 0 mm 2 m/s 751 mmHg 82%
    08:00 +1°C° 0 mm 3 m/s 752 mmHg 83%
    09:00 +1°C° 0 mm 3 m/s 752 mmHg 83%
    10:00 +1°C° 0 mm 4 m/s 752 mmHg 78%
    11:00 +1°C° 0 mm 4 m/s 752 mmHg 73%
    12:00 +2°C° 0 mm 5 m/s 752 mmHg 69%
    13:00 +1°C° 0 mm 5 m/s 752 mmHg 69%
    14:00 +1°C° 0 mm 5 m/s 752 mmHg 70%
    15:00 +1°C° 0 mm 5 m/s 752 mmHg 70%
    16:00 +1°C° 0 mm 5 m/s 753 mmHg 71%
    17:00 0°C° 0 mm 5 m/s 753 mmHg 73%
    18:00 0°C° 0 mm 5 m/s 754 mmHg 74%
    19:00 0°C° 0,1 mm 5 m/s 754 mmHg 74%
    20:00 0°C° 0,1 mm 5 m/s 755 mmHg 75%
    21:00 0°C° 0,1 mm 5 m/s 755 mmHg 76%
    22:00 -1°C° 0 mm 6 m/s 756 mmHg 76%
    23:00 -1°C° 0 mm 6 m/s 756 mmHg 76%

    26 Novembre, Dimanche

    Heure Température Précipitation Vent Pression Humidité
    00:00 +1°C° 0 mm 6 m/s 757 mmHg 75%
    01:00 +1°C° 0 mm 6 m/s 757 mmHg 75%
    02:00 +1°C° 0 mm 6 m/s 757 mmHg 74%
    03:00 0°C° 0 mm 7 m/s 757 mmHg 73%
    04:00 0°C° 0,1 mm 7 m/s 758 mmHg 73%
    05:00 0°C° 0,1 mm 7 m/s 758 mmHg 72%
    06:00 0°C° 0,1 mm 7 m/s 758 mmHg 72%
    07:00 +1°C° 0,1 mm 6 m/s 759 mmHg 72%
    08:00 +1°C° 0,1 mm 6 m/s 759 mmHg 72%
    09:00 +2°C° 0,1 mm 6 m/s 760 mmHg 73%
    10:00 +2°C° 0,1 mm 6 m/s 760 mmHg 71%
    11:00 +3°C° 0,1 mm 7 m/s 761 mmHg 70%
    12:00 +3°C° 0,1 mm 7 m/s 761 mmHg 68%
    13:00 +3°C° 0,1 mm 6 m/s 761 mmHg 71%
    14:00 +3°C° 0,1 mm 6 m/s 761 mmHg 74%
    15:00 +3°C° 0,1 mm 5 m/s 761 mmHg 76%
    16:00 +3°C° 0,1 mm 5 m/s 761 mmHg 81%
    17:00 +3°C° 0,1 mm 4 m/s 761 mmHg 85%
    18:00 +3°C° 0,1 mm 4 m/s 761 mmHg 90%
    19:00 +4°C° 0,1 mm 4 m/s 760 mmHg 91%
    20:00 +4°C° 0,1 mm 4 m/s 760 mmHg 92%
    21:00 +4°C° 0,1 mm 4 m/s 760 mmHg 93%
    22:00 +4°C° 0,2 mm 4 m/s 760 mmHg 93%
    23:00 +5°C° 0,2 mm 4 m/s 759 mmHg 93%
    Voir plus